Location: Mohawk View
(42.7837°N, 73.7885°W)
Time: 13:20:11
(UTC+00:00)

BREEZE-M DEB (TANK) - Pass Details

Date: 17 June 2021
Orbit: 333 x 16573 km, 49.3° (Epoch: 30 July)

Event Time Altitude Azimuth Distance (km) Brightness Sun altitude
Rises 03:42:45 0° 236° (SW) 8,578 8.2 -21.7°
Reaches altitude 10° 03:50:53 10° 236° (WSW) 5,407 7.1 -22.1°
Maximum altitude 04:01:50 83° 152° (SSE) 850 3.0 -22.7°
Drops below altitude 10° 04:05:09 10° 63° (ENE) 1,727 5.0 -22.8°
Sets 04:06:29 0° 63° (ENE) 2,374 5.8 -22.9°
